WZZ3DK EDLW-LYPG

Flight info

Callsign WZZ3DK
Flight time N/A
Altitude 35000
Route GMH1U/24 GMH Q603 TESGA DCT ESATI DCT DETEV DCT DINKU M867 XERUM DCT BAVAX DCT RADIZ DCT DARZA DCT ELTIB DCT OSLUD DCT MOJ
Aircraft A320/M-SDE3FGHIRWY/LB1

Departure

Time 2026-05-07 11:35
Airport Dortmund Airport (EDLW)

Arrival

Time N/A
Airport Podgorica Airport / Podgorica Golubovci Airbase (LYPG)
Time Latitude Longitude Altitude Speed Heading
2026-05-07 11:18 51.51415 7.61002 425 ft 0 kts 144°
2026-05-07 11:21 51.51415 7.61001 434 ft 0 kts 143°
2026-05-07 11:28 51.51421 7.60994 420 ft 2 kts 141°
2026-05-07 11:28 51.51434 7.60978 419 ft 2 kts 142°
2026-05-07 11:28 51.51447 7.60961 425 ft 2 kts 140°
2026-05-07 11:29 51.51459 7.60944 420 ft 2 kts 126°
2026-05-07 11:29 51.51464 7.60924 423 ft 1 kts 60°
2026-05-07 11:29 51.51463 7.60922 423 ft 0 kts 60°
2026-05-07 11:32 51.51470 7.60941 421 ft 3 kts 60°
2026-05-07 11:32 51.51493 7.61008 432 ft 13 kts 62°
2026-05-07 11:32 51.51578 7.61065 433 ft 17 kts 31°
2026-05-07 11:33 51.51661 7.61283 429 ft 28 kts 59°
2026-05-07 11:33 51.51770 7.61585 426 ft 33 kts 61°
2026-05-07 11:33 51.51891 7.61929 412 ft 36 kts 60°
2026-05-07 11:33 51.52013 7.62279 412 ft 33 kts 61°
2026-05-07 11:34 51.52128 7.62612 411 ft 35 kts 61°
2026-05-07 11:34 51.52254 7.62769 409 ft 16 kts 333°
2026-05-07 11:34 51.52337 7.62680 410 ft 12 kts 292°
2026-05-07 11:34 51.52282 7.62498 412 ft 43 kts 240°
2026-05-07 11:35 51.52006 7.61713 408 ft 115 kts 240°
2026-05-07 11:35 51.51521 7.60336 464 ft 161 kts 240°
2026-05-07 11:35 51.50977 7.58798 1151 ft 156 kts 242°
2026-05-07 11:35 51.50457 7.57260 1827 ft 159 kts 244°
2026-05-07 11:36 51.49870 7.55592 2033 ft 184 kts 243°
2026-05-07 11:36 51.49195 7.53688 2237 ft 208 kts 242°
2026-05-07 11:36 51.48182 7.51872 2511 ft 234 kts 211°
2026-05-07 11:36 51.46540 7.51226 2836 ft 258 kts 173°
2026-05-07 11:37 51.44803 7.52130 3461 ft 268 kts 149°
2026-05-07 11:37 51.43266 7.53862 4293 ft 272 kts 141°
2026-05-07 11:37 51.41748 7.55706 5138 ft 275 kts 141°
2026-05-07 11:37 51.40230 7.57580 6033 ft 277 kts 141°
2026-05-07 11:38 51.38701 7.59479 6843 ft 280 kts 141°
2026-05-07 11:38 51.37149 7.61405 7579 ft 284 kts 141°
2026-05-07 11:38 51.35579 7.63346 8377 ft 287 kts 141°
2026-05-07 11:38 51.33994 7.65305 9171 ft 289 kts 142°
2026-05-07 11:39 51.32395 7.67277 9956 ft 292 kts 142°
2026-05-07 11:39 51.30758 7.69291 10394 ft 306 kts 142°
2026-05-07 11:39 51.29615 7.70696 10501 ft 322 kts 142°
2026-05-07 11:39 51.27775 7.72955 10634 ft 344 kts 142°
2026-05-07 11:40 51.25181 7.76143 11083 ft 362 kts 142°
2026-05-07 11:40 51.23177 7.78608 11689 ft 366 kts 142°
2026-05-07 11:40 51.21148 7.81103 12257 ft 370 kts 142°
2026-05-07 11:40 51.19786 7.82774 12595 ft 375 kts 142°
2026-05-07 11:41 51.17705 7.85323 13166 ft 380 kts 142°
2026-05-07 11:41 51.15596 7.87903 13799 ft 384 kts 143°
2026-05-07 11:41 51.13471 7.90494 14378 ft 386 kts 143°
2026-05-07 11:41 51.11328 7.93101 14936 ft 389 kts 143°
2026-05-07 11:42 51.09175 7.95720 15539 ft 390 kts 143°
2026-05-07 11:42 51.07009 7.98356 16121 ft 392 kts 143°
2026-05-07 11:42 51.04822 8.01013 16615 ft 397 kts 143°
2026-05-07 11:42 51.02618 8.03685 17184 ft 399 kts 143°
2026-05-07 11:43 51.00382 8.06300 17843 ft 400 kts 144°
2026-05-07 11:43 50.98056 8.08784 18365 ft 405 kts 147°
2026-05-07 11:43 50.95669 8.11174 18910 ft 407 kts 148°
2026-05-07 11:43 50.93281 8.13496 19437 ft 409 kts 148°
2026-05-07 11:44 50.90838 8.15864 19955 ft 412 kts 148°
2026-05-07 11:44 50.88393 8.18254 20458 ft 415 kts 148°
2026-05-07 11:44 50.85939 8.20686 20927 ft 418 kts 147°
2026-05-07 11:44 50.83475 8.23152 21375 ft 420 kts 147°
2026-05-07 11:45 50.81004 8.25639 21855 ft 422 kts 147°
2026-05-07 11:45 50.78511 8.28147 22310 ft 424 kts 147°
2026-05-07 11:45 50.76016 8.30651 22740 ft 426 kts 147°
2026-05-07 11:45 50.73506 8.33158 23145 ft 428 kts 148°
2026-05-07 11:46 50.70973 8.35682 23494 ft 432 kts 148°
2026-05-07 11:46 50.68423 8.38222 23828 ft 435 kts 148°
2026-05-07 11:46 50.65862 8.40766 24174 ft 436 kts 148°
2026-05-07 11:46 50.63287 8.43317 24554 ft 437 kts 148°
2026-05-07 11:47 50.60703 8.45875 24909 ft 438 kts 148°
2026-05-07 11:47 50.58122 8.48432 25239 ft 439 kts 148°
2026-05-07 11:47 50.55526 8.51003 25570 ft 441 kts 148°
2026-05-07 11:47 50.52916 8.53582 25847 ft 444 kts 148°
2026-05-07 11:48 50.50287 8.56174 26135 ft 447 kts 148°
2026-05-07 11:48 50.47685 8.58738 26469 ft 448 kts 148°
2026-05-07 11:48 50.45069 8.61409 26808 ft 449 kts 143°
2026-05-07 11:48 50.42691 8.64575 27198 ft 449 kts 136°
2026-05-07 11:49 50.40448 8.67984 27613 ft 449 kts 136°
2026-05-07 11:49 50.38203 8.71386 28021 ft 449 kts 136°
2026-05-07 11:49 50.35962 8.74771 28514 ft 446 kts 136°
2026-05-07 11:49 50.33726 8.78137 29005 ft 445 kts 136°
2026-05-07 11:50 50.31493 8.81486 29448 ft 444 kts 136°
2026-05-07 11:50 50.29283 8.84796 29923 ft 442 kts 136°
2026-05-07 11:50 50.27059 8.88124 30311 ft 442 kts 136°
2026-05-07 11:50 50.24836 8.91446 30646 ft 442 kts 136°
2026-05-07 11:51 50.22609 8.94772 30986 ft 442 kts 136°
2026-05-07 11:51 50.20382 8.98095 31345 ft 443 kts 137°
2026-05-07 11:51 50.18178 9.01380 31701 ft 443 kts 136°
2026-05-07 11:51 50.15948 9.04705 32073 ft 443 kts 137°
2026-05-07 11:52 50.13718 9.08025 32467 ft 442 kts 136°
2026-05-07 11:52 50.11494 9.11329 32863 ft 442 kts 137°
2026-05-07 11:52 50.09267 9.14625 33259 ft 442 kts 137°
2026-05-07 11:52 50.07038 9.17920 33676 ft 441 kts 137°
2026-05-07 11:53 50.04816 9.21202 34030 ft 441 kts 137°
2026-05-07 11:53 50.02588 9.24490 34305 ft 441 kts 137°
2026-05-07 11:53 50.00358 9.27779 34573 ft 441 kts 137°
2026-05-07 11:53 49.98133 9.31058 34844 ft 441 kts 137°
2026-05-07 11:54 49.95900 9.34345 34992 ft 442 kts 137°
2026-05-07 11:54 49.91410 9.40944 35033 ft 453 kts 137°
2026-05-07 11:55 49.86801 9.47714 35031 ft 457 kts 137°
2026-05-07 11:55 49.82168 9.54492 35031 ft 458 kts 138°
2026-05-07 11:56 49.77522 9.61247 35032 ft 459 kts 138°
2026-05-07 11:56 49.72864 9.67991 35033 ft 459 kts 138°
2026-05-07 11:57 49.70535 9.71362 35035 ft 459 kts 138°
2026-05-07 11:58 49.57204 9.90562 35041 ft 460 kts 138°
2026-05-07 11:59 49.46500 10.05878 35029 ft 460 kts 139°
2026-05-07 12:00 49.41811 10.12566 35029 ft 460 kts 139°
2026-05-07 12:00 49.37115 10.19231 35034 ft 460 kts 139°
2026-05-07 12:01 49.33204 10.24765 35042 ft 460 kts 139°